Humidity-temperature Sensor

Selected Measurement Type: Relative Humidity

 
Relative Humidity [%]     6 entries per hour
Showing data from 12/12/2016 (00:00:00 Z) to 12/5/2016 (00:01:00 Z)
Previous Next [ Day | 3-Days | 7-Days ]
First Last
Prev [ Day | 3-Days | 7-Days ] Next
First Last

Start Time:     :
End Time:     :     
Time (in GMT) :00 :50 :40 :30 :20 :10
Previous Next [ Day | 3-Days | 7-Days ]
First Last
Prev [ Day | 3-Days | 7-Days ] Next
First Last


123 => good data
MM => data is determined as missing
-- => data not received/configured
Back to Top Back to Top
12/12/2016 00:00 to 23:10 85.14 85.90 85.14 84.02 82.81 81.50
12/11/2016 23:00 to 22:10 84.42 84.36 86.93 88.00 87.16 87.16
12/11/2016 22:00 to 21:10 87.71 87.22 85.67 82.32 81.88 86.19
12/11/2016 21:00 to 20:10 88.94 88.52 86.63 83.79 82.26 81.33
12/11/2016 20:00 to 19:10 81.23 81.82 81.86 83.23 85.25 83.75
12/11/2016 19:00 to 18:10 84.09 82.64 82.85 83.54 82.78 82.55
12/11/2016 18:00 to 17:10 82.43 82.57 83.79 82.39 81.08 80.37
12/11/2016 17:00 to 16:10 81.27 81.67 81.96 81.90 81.00 81.15
12/11/2016 16:00 to 15:10 80.89 82.05 81.94 81.63 83.20 84.51
12/11/2016 15:00 to 14:10 83.84 84.32 84.19 83.77 84.45 83.50
12/11/2016 14:00 to 13:10 84.42 84.84 85.52 84.42 84.84 85.37
12/11/2016 13:00 to 12:10 86.59 86.44 85.18 85.27 86.07 85.48
12/11/2016 12:00 to 11:10 86.32 87.18 87.56 88.55 89.18 89.11
12/11/2016 11:00 to 10:10 88.69 89.53 89.60 89.03 90.92 89.89
12/11/2016 10:00 to 9:10 89.34 91.47 91.19 91.83 93.68 94.62
12/11/2016 09:00 to 8:10 93.65 91.72 88.69 89.98 90.61 86.23
12/11/2016 08:00 to 7:10 87.85 87.03 83.86 84.40 85.25 84.26
12/11/2016 07:00 to 6:10 84.28 84.55 84.45 84.84 84.03 83.71
12/11/2016 06:00 to 5:10 83.98 83.54 83.12 82.64 82.43 82.32
12/11/2016 05:00 to 4:10 83.20 84.11 85.27 85.01 84.64 82.45
12/11/2016 04:00 to 3:10 82.62 81.38 81.25 82.76 82.17 80.85
12/11/2016 03:00 to 2:10 80.60 81.35 81.59 81.08 80.49 79.99
12/11/2016 02:00 to 1:10 80.12 79.34 78.71 79.50 77.91 79.48
12/11/2016 01:00 to 0:10 80.12 80.37 80.85 81.33 80.66 81.35
12/11/2016 00:00 to 23:10 81.99 80.87 82.05 81.90 81.75 81.06
12/10/2016 23:00 to 22:10 81.71 81.80 81.84 81.00 82.79 82.30
12/10/2016 22:00 to 21:10 82.58 81.25 81.75 81.44 79.93 80.64
12/10/2016 21:00 to 20:10 80.85 82.22 82.07 81.71 82.66 81.27
12/10/2016 20:00 to 19:10 81.44 80.16 80.45 82.76 83.73 83.50
12/10/2016 19:00 to 18:10 84.11 84.82 84.24 82.81 82.68 83.90
12/10/2016 18:00 to 17:10 84.32 82.20 83.98 83.40 83.82 84.47
12/10/2016 17:00 to 16:10 84.17 82.81 82.93 84.78 84.57 83.84
12/10/2016 16:00 to 15:10 83.71 83.02 83.16 85.27 85.01 84.66
12/10/2016 15:00 to 14:10 84.15 85.54 86.91 86.44 86.11 85.18
12/10/2016 14:00 to 13:10 85.62 86.27 85.48 84.38 84.74 84.74
12/10/2016 13:00 to 12:10 85.96 86.34 89.60 90.14 87.85 90.31
12/10/2016 12:00 to 11:10 88.21 91.05 88.19 89.95 90.06 89.89
12/10/2016 11:00 to 10:10 90.52 91.09 91.60 92.08 93.23 93.45
12/10/2016 10:00 to 9:10 93.51 94.50 95.44 95.67 96.85 96.39
12/10/2016 09:00 to 8:10 94.69 93.11 91.41 91.68 89.09 88.84
12/10/2016 08:00 to 7:10 87.03 85.48 82.26 83.14 83.23 83.94
12/10/2016 07:00 to 6:10 84.07 84.34 84.19 83.96 84.22 83.67
12/10/2016 06:00 to 5:10 84.57 84.57 83.63 83.35 83.96 84.72
12/10/2016 05:00 to 4:10 84.72 85.43 83.81 84.28 83.81 83.52
12/10/2016 04:00 to 3:10 82.34 82.93 83.42 83.67 83.06 82.99
12/10/2016 03:00 to 2:10 81.36 81.29 80.05 82.15 83.54 84.45
12/10/2016 02:00 to 1:10 -- -- -- -- -- --
12/10/2016 01:00 to 0:10 92.86 92.44 93.09 94.29 93.78 92.33
12/10/2016 00:00 to 23:10 93.11 91.24 90.02 90.35 91.72 92.90
12/9/2016 23:00 to 22:10 93.66 93.59 93.87 94.56 95.38 94.87
12/9/2016 22:00 to 21:10 94.26 93.00 88.36 88.99 90.04 89.98
12/9/2016 21:00 to 20:10 88.32 88.48 90.04 90.25 87.96 88.99
12/9/2016 20:00 to 19:10 88.92 88.55 88.95 91.64 90.25 91.15
12/9/2016 19:00 to 18:10 91.64 92.23 95.19 93.99 93.51 93.65
12/9/2016 18:00 to 17:10 94.81 96.56 96.32 95.36 94.50 95.00
12/9/2016 17:00 to 16:10 96.30 95.32 95.13 96.33 95.21 95.29
12/9/2016 16:00 to 15:10 94.45 93.99 89.51 87.70 87.50 87.47
12/9/2016 15:00 to 14:10 87.26 87.49 86.91 88.04 87.26 88.42
12/9/2016 14:00 to 13:10 88.90 89.35 90.40 91.53 91.07 91.60
12/9/2016 13:00 to 12:10 92.79 92.37 92.16 92.14 91.93 92.60
12/9/2016 12:00 to 11:10 92.44 92.75 92.48 92.22 93.21 92.58
12/9/2016 11:00 to 10:10 91.22 91.32 91.03 86.07 85.31 84.72
12/9/2016 10:00 to 9:10 82.74 83.50 83.92 82.79 84.80 84.82
12/9/2016 09:00 to 8:10 84.43 84.07 84.70 83.42 85.52 85.85
12/9/2016 08:00 to 7:10 84.55 84.00 83.12 81.44 81.65 81.06
12/9/2016 07:00 to 6:10 81.21 80.94 80.47 80.45 79.40 79.59
12/9/2016 06:00 to 5:10 -- -- -- -- -- --
12/9/2016 05:00 to 4:10 80.16 79.09 80.14 79.50 79.50 79.13
12/9/2016 04:00 to 3:10 79.97 79.72 79.71 79.34 79.86 80.33
12/9/2016 03:00 to 2:10 80.18 79.99 79.74 78.73 79.65 79.42
12/9/2016 02:00 to 1:10 80.72 81.42 80.89 79.65 79.91 80.18
12/9/2016 01:00 to 0:10 79.46 80.72 80.16 80.30 78.35 79.61
12/9/2016 00:00 to 23:10 80.01 78.96 78.85 78.14 78.41 78.48
12/8/2016 23:00 to 22:10 78.20 78.27 79.30 79.82 81.48 83.06
12/8/2016 22:00 to 21:10 82.79 83.14 79.13 78.03 78.47 80.45
12/8/2016 21:00 to 20:10 80.87 81.76 83.56 85.31 82.58 82.30
12/8/2016 20:00 to 19:10 83.86 84.28 82.87 82.95 83.12 81.38
12/8/2016 19:00 to 18:10 81.63 80.77 81.76 82.43 82.68 83.56
12/8/2016 18:00 to 17:10 83.35 79.78 80.64 79.23 79.29 79.76
12/8/2016 17:00 to 16:10 81.73 80.58 80.47 79.82 81.82 80.14
12/8/2016 16:00 to 15:10 80.58 81.06 81.71 79.04 79.88 80.33
12/8/2016 15:00 to 14:10 82.28 79.36 78.98 80.49 78.27 79.84
12/8/2016 14:00 to 13:10 80.03 80.94 81.19 80.94 79.76 79.86
12/8/2016 13:00 to 12:10 80.16 78.87 79.84 80.32 81.88 82.15
12/8/2016 12:00 to 11:10 82.20 81.40 80.96 81.57 80.35 79.13
12/8/2016 11:00 to 10:10 79.00 79.57 80.01 79.44 78.64 80.83
12/8/2016 10:00 to 9:10 80.39 80.70 81.78 81.35 81.52 81.44
12/8/2016 09:00 to 8:10 81.82 81.94 81.50 80.77 82.20 81.36
12/8/2016 08:00 to 7:10 81.21 82.37 81.73 81.82 80.89 80.96
12/8/2016 07:00 to 6:10 80.93 80.35 78.92 79.57 80.70 79.44
12/8/2016 06:00 to 5:10 80.03 78.41 78.66 79.04 79.38 79.04
12/8/2016 05:00 to 4:10 78.79 78.73 78.62 77.80 77.93 77.72
12/8/2016 04:00 to 3:10 76.65 77.05 76.92 77.05 77.68 76.79
12/8/2016 03:00 to 2:10 77.13 77.59 77.47 77.34 77.63 78.05
12/8/2016 02:00 to 1:10 77.86 78.16 78.18 77.97 80.11 79.67
12/8/2016 01:00 to 0:10 79.51 79.44 79.08 78.16 77.05 76.65
12/8/2016 00:00 to 23:10 78.81 77.82 77.38 75.95 76.88 77.61
12/7/2016 23:00 to 22:10 -- -- -- -- -- --
12/7/2016 22:00 to 21:10 77.84 76.96 76.54 78.37 77.74 77.84
12/7/2016 21:00 to 20:10 77.86 76.75 76.50 78.52 79.80 80.01
12/7/2016 20:00 to 19:10 80.26 81.75 80.62 79.63 79.57 80.37
12/7/2016 19:00 to 18:10 80.18 79.51 80.14 80.05 81.12 80.58
12/7/2016 18:00 to 17:10 78.98 78.45 79.61 80.53 79.15 79.36
12/7/2016 17:00 to 16:10 80.68 81.31 82.22 80.91 82.41 80.64
12/7/2016 16:00 to 15:10 80.11 80.75 79.78 80.30 80.32 80.37
12/7/2016 15:00 to 14:10 82.43 81.31 83.21 82.68 84.00 84.63
12/7/2016 14:00 to 13:10 86.23 87.66 87.85 87.73 87.62 88.12
12/7/2016 13:00 to 12:10 87.47 87.26 86.63 86.78 87.54 86.80
12/7/2016 12:00 to 11:10 86.68 86.40 87.28 88.10 90.44 90.50
12/7/2016 11:00 to 10:10 89.37 88.46 89.11 89.28 88.99 87.73
12/7/2016 10:00 to 9:10 88.40 89.22 85.69 86.67 87.54 87.66
12/7/2016 09:00 to 8:10 88.76 83.00 82.72 83.65 84.85 84.13
12/7/2016 08:00 to 7:10 83.79 83.14 84.19 84.38 81.97 80.94
12/7/2016 07:00 to 6:10 81.88 81.54 80.05 80.81 80.70 80.64
12/7/2016 06:00 to 5:10 82.20 81.21 80.49 83.35 85.35 87.56
12/7/2016 05:00 to 4:10 89.09 90.16 90.69 91.05 82.03 80.53
12/7/2016 04:00 to 3:10 80.89 82.22 80.64 79.71 80.58 80.14
12/7/2016 03:00 to 2:10 81.27 83.29 88.88 89.28 84.24 82.05
12/7/2016 02:00 to 1:10 81.35 80.89 83.08 81.75 81.19 83.39
12/7/2016 01:00 to 0:10 82.76 82.79 83.16 81.25 82.13 83.71
12/7/2016 00:00 to 23:10 81.52 80.35 81.23 80.98 80.30 81.42
12/6/2016 23:00 to 22:10 81.19 80.96 82.01 83.00 83.61 83.29
12/6/2016 22:00 to 21:10 83.73 83.00 83.06 84.19 83.73 83.29
12/6/2016 21:00 to 20:10 83.84 83.20 84.09 82.89 84.59 82.41
12/6/2016 20:00 to 19:10 83.00 81.65 81.46 82.97 82.43 83.02
12/6/2016 19:00 to 18:10 81.73 81.61 80.96 82.83 83.31 83.60
12/6/2016 18:00 to 17:10 83.14 80.87 80.75 82.53 83.18 83.52
12/6/2016 17:00 to 16:10 83.69 83.44 82.91 83.33 82.72 84.53
12/6/2016 16:00 to 15:10 85.45 82.51 81.97 83.42 83.10 85.14
12/6/2016 15:00 to 14:10 84.95 82.26 83.21 81.69 82.36 81.73
12/6/2016 14:00 to 13:10 -- -- -- -- -- --
12/6/2016 13:00 to 12:10 82.43 84.32 83.16 83.71 84.99 83.79
12/6/2016 12:00 to 11:10 84.26 82.78 84.70 83.33 82.83 84.47
12/6/2016 11:00 to 10:10 84.51 85.24 83.42 83.35 85.67 85.03
12/6/2016 10:00 to 9:10 86.68 89.79 89.43 87.18 82.72 83.96
12/6/2016 09:00 to 8:10 82.64 83.90 84.22 85.08 89.74 89.34
12/6/2016 08:00 to 7:10 87.28 89.03 88.55 87.62 84.89 87.33
12/6/2016 07:00 to 6:10 87.45 87.52 86.89 87.28 89.68 86.91
12/6/2016 06:00 to 5:10 -- -- -- -- -- --
12/6/2016 05:00 to 4:10 92.23 91.97 90.84 89.32 90.67 90.23
12/6/2016 04:00 to 3:10 89.34 87.64 84.45 82.99 83.06 81.76
12/6/2016 03:00 to 2:10 81.12 80.37 81.61 81.99 82.17 82.03
12/6/2016 02:00 to 1:10 82.37 82.45 81.50 80.39 79.90 81.27
12/6/2016 01:00 to 0:10 80.24 80.77 80.24 80.30 80.37 81.69
12/6/2016 00:00 to 23:10 80.85 80.98 79.74 81.52 81.99 81.86
12/5/2016 23:00 to 22:10 81.55 82.26 82.34 83.60 81.84 80.96
12/5/2016 22:00 to 21:10 80.87 81.57 82.62 83.42 83.84 83.75
12/5/2016 21:00 to 20:10 83.40 81.36 80.68 79.80 79.99 80.53
12/5/2016 20:00 to 19:10 79.90 79.90 80.87 81.75 81.06 82.32
12/5/2016 19:00 to 18:10 81.76 77.61 78.35 78.69 78.50 77.05
12/5/2016 18:00 to 17:10 78.73 77.66 77.93 78.14 78.22 80.20
12/5/2016 17:00 to 16:10 79.59 80.89 82.49 81.15 79.19 80.49
12/5/2016 16:00 to 15:10 79.40 81.48 81.15 80.93 81.54 81.63
12/5/2016 15:00 to 14:10 82.15 80.79 82.01 83.23 84.21 83.86
12/5/2016 14:00 to 13:10 84.28 83.08 84.74 84.51 85.14 84.97
12/5/2016 13:00 to 12:10 83.50 82.76 84.82 82.26 78.29 79.19
12/5/2016 12:00 to 11:10 77.84 78.73 78.35 77.93 78.26 78.01
12/5/2016 11:00 to 10:10 78.27 78.24 79.00 80.09 78.62 78.75
12/5/2016 10:00 to 9:10 78.54 77.72 78.77 78.68 79.71 79.91
12/5/2016 09:00 to 8:10 79.84 81.10 79.71 79.91 80.24 80.28
12/5/2016 08:00 to 7:10 79.13 79.65 81.71 81.69 82.97 81.25
12/5/2016 07:00 to 6:10 82.39 82.09 82.05 81.54 80.77 81.15
12/5/2016 06:00 to 5:10 79.99 79.57 79.51 81.10 81.69 78.18
12/5/2016 05:00 to 4:10 80.09 81.00 80.56 80.70 80.89 80.47
12/5/2016 04:00 to 3:10 79.72 81.27 80.22 79.74 79.78 79.72
12/5/2016 03:00 to 2:10 78.90 78.77 80.16 79.46 79.38 79.53
12/5/2016 02:00 to 1:10 78.16 79.55 77.68 79.88 79.30 79.32
12/5/2016 01:00 to 0:10 79.69 78.08 78.71 78.87 79.57 78.05